Location: Ariel
(45.9570°N, 122.5700°W)
Time: 15:07:41
(UTC-07:00)

ISS - Visible Passes

Search period start: 08 May 2021 00:00
Search period end: 18 May 2021 00:00
Orbit: 418 x 421 km, 51.6° (Epoch: 08 May)

Date Brightness Start Highest point End Pass type
(mag) Time Alt. Az. Time Alt. Az. Time Alt. Az.
08 May -0.8 01:34:05 12° ENE 01:34:05 12° ENE 01:34:22 10° ENE visible
08 May -2.2 03:07:01 28° NW 03:08:02 34° N 03:11:10 10° ENE visible
08 May -2.0 04:42:17 10° WNW 04:45:24 33° N 04:48:31 10° ENE visible
09 May -2.3 02:21:03 37° N 02:21:03 37° N 02:23:43 10° ENE visible
09 May -1.9 03:54:47 10° WNW 03:57:50 30° N 04:00:53 10° ENE visible
10 May -1.3 01:35:02 20° NE 01:35:02 20° NE 01:36:18 10° ENE visible
10 May -1.8 03:07:58 15° WNW 03:10:15 29° N 03:13:17 10° ENE visible
10 May -2.7 04:44:16 10° WNW 04:47:34 48° NNE 04:50:51 10° E visible
11 May -1.9 02:21:55 27° NNW 02:22:41 31° N 02:25:45 10° ENE visible
11 May -2.2 03:56:50 10° NW 04:00:02 38° NNE 04:03:14 10° E visible
12 May -1.8 01:35:50 30° NNE 01:35:50 30° NNE 01:38:15 10° ENE visible
12 May -2.0 03:09:22 10° WNW 03:12:29 33° N 03:15:35 10° ENE visible
12 May -3.8 04:46:11 10° WNW 04:49:34 88° SSW 04:52:57 10° ESE visible
13 May -1.3 00:49:36 19° NE 00:49:36 19° NE 00:50:48 10° ENE visible
13 May -1.8 02:22:31 14° NW 02:24:54 30° N 02:27:57 10° ENE visible
13 May -3.3 03:58:45 10° WNW 04:02:07 65° NNE 04:05:29 10° ESE visible
14 May -1.0 00:03:01 12° NE 00:03:01 12° NE 00:03:22 10° ENE visible
14 May -1.8 01:35:53 21° NW 01:37:19 29° N 01:40:21 10° ENE visible
14 May -2.7 03:11:20 10° WNW 03:14:37 48° NNE 03:17:55 10° E visible
14 May -3.2 04:48:15 10° WNW 04:51:23 36° SW 04:54:31 10° SSE visible
14 May -2.4 21:33:30 10° S 21:36:03 20° SE 21:38:35 10° E visible
14 May -3.6 23:09:12 10° WSW 23:12:33 72° NNW 23:15:57 10° ENE visible
15 May -1.8 00:46:41 10° WNW 00:49:44 31° N 00:52:48 10° ENE visible
15 May -2.3 02:23:53 10° WNW 02:27:05 38° NNE 02:30:17 10° E visible
15 May -3.8 04:00:42 10° WNW 04:04:02 57° SSW 04:07:21 10° SE visible
15 May -3.9 22:21:46 10° SW 22:25:07 78° SSE 22:28:30 10° ENE visible
15 May -2.0 23:59:02 10° WNW 00:02:10 34° N 00:05:17 10° ENE visible
16 May -2.0 01:36:26 10° WNW 01:39:32 33° N 01:42:38 10° ENE visible
16 May -3.9 03:13:13 10° WNW 03:16:37 87° SSW 03:20:00 10° ESE visible
16 May -2.0 04:51:00 10° W 04:53:00 15° SW 04:54:58 10° S visible
16 May -3.6 21:34:27 10° SW 21:37:43 50° SE 21:41:00 10° ENE visible
16 May -2.4 23:11:24 10° W 23:14:36 40° NNW 23:17:50 10° ENE visible
17 May -1.8 00:48:54 10° WNW 00:51:57 30° N 00:54:26 13° ENE visible
17 May -1.8 02:25:47 10° WNW 02:33:46 - ESE 02:27:13 23° NW visible
17 May -2.0 04:07:15 17° S 04:07:15 17° S 04:08:28 10° SSE visible
17 May -2.9 22:23:47 10° W 22:27:04 52° NNW 22:30:23 10° ENE visible
